KI0IO-2 Weather Reports


time (UTC)temp
C
wind
direction
speed
KPH
gust
KPH
rain 1hr
cm
rain 24hr
cm
rain mn
cm
humidity
%
barometer
mb
20260505201005 0 38 4.8 14.5 0.00 1.80 1.65 92 1013.6
20260505200505 0 51 8.0 14.5 0.03 1.80 1.65 92 1013.4
20260505200005 0 29 6.4 14.5 0.03 1.80 1.65 92 1013.4
20260505195505 0 54 8.0 14.5 0.03 1.80 1.65 92 1013.4
20260505194505 0 32 4.8 20.9 0.03 1.80 1.65 92 1013.3
20260505193505 1 16 9.7 24.1 0.05 1.80 1.65 91 1013.1
20260505192505 2 33 9.7 20.9 0.08 1.80 1.65 92 1013.1
20260505192005 2 311 4.8 11.3 0.08 1.80 1.65 92 1012.9
20260505191505 2 292 6.4 11.3 0.10 1.80 1.65 92 1012.7
20260505191005 2 313 4.8 9.7 0.10 1.80 1.65 92 1012.6
20260505190505 2 318 4.8 9.7 0.10 1.78 1.63 92 1012.6
20260505190005 2 91 0.0 4.8 0.10 1.78 1.63 92 1012.6
20260505185005 2 195 0.0 1.6 0.13 1.78 1.63 92 1012.7
20260505184505 2 195 0.0 1.6 0.13 1.78 1.63 92 1012.8
20260505184006 2 195 0.0 3.2 0.15 1.78 1.63 92 1012.7
20260505183005 2 195 0.0 4.8 0.15 1.75 1.60 92 1012.4
20260505182005 2 224 0.0 4.8 0.15 1.73 1.57 92 1012.5
20260505181505 2 227 1.6 3.2 0.15 1.70 1.55 92 1012.6
20260505180005 2 232 0.0 3.2 0.18 1.68 1.52 92 1012.7
20260505175505 2 232 0.0 3.2 0.20 1.68 1.52 92 1012.7
20260505174505 2 232 0.0 4.8 0.20 1.65 1.50 92 1012.6
20260505172506 2 233 0.0 4.8 0.23 1.57 1.42 92 1012.3
20260505172005 2 233 1.6 4.8 0.25 1.57 1.42 92 1012.6
20260505171005 2 165 3.2 8.0 0.28 1.55 1.40 93 1012.9
20260505170505 2 311 0.0 8.0 0.28 1.52 1.37 93 1012.8
20260505170005 2 311 1.6 8.0 0.28 1.50 1.35 93 1012.7
20260505165006 2 315 0.0 1.6 0.28 1.45 1.30 93 1012.5
20260505164504 1 315 0.0 1.6 0.30 1.45 1.30 93 1012.5
20260505164005 1 315 0.0 1.6 0.30 1.42 1.27 93 1012.4
20260505163505 1 315 0.0 3.2 0.30 1.40 1.24 93 1012.4
20260505163005 1 315 0.0 3.2 0.30 1.37 1.22 93 1012.4
20260505162506 1 315 0.0 1.6 0.30 1.35 1.19 93 1012.5
20260505162005 1 315 0.0 0.0 0.30 1.32 1.17 93 1012.4
20260505161005 1 315 0.0 1.6 0.30 1.27 1.12 93 1012.4
20260505160505 1 315 0.0 0.0 0.30 1.24 1.09 93 1012.6
20260505153005 1 315 1.6 4.8 0.20 1.09 0.94 93 1012.5
20260505152504 1 315 0.0 1.6 0.18 1.07 0.91 93 1012.5
20260505151504 1 315 0.0 1.6 0.13 1.02 0.86 93 1012.5
20260505151004 1 315 0.0 1.6 0.10 0.99 0.84 93 1012.5
20260505150505 1 315 0.0 1.6 0.08 0.97 0.81 93 1012.5
20260505140504 0 315 0.0 0.0 0.03 0.89 0.74 93 1012.2
20260505124004 0 315 0.0 1.6 0.05 0.86 0.71 92 1011.1
20260505123505 0 315 0.0 3.2 0.05 0.86 0.71 92 1011.1
20260505123004 0 315 0.0 3.2 0.08 0.86 0.71 92 1011.1
20260505122504 0 315 0.0 4.8 0.08 0.86 0.71 92 1011.0
20260505122004 0 315 1.6 4.8 0.08 0.86 0.71 92 1011.0
20260505121505 0 315 1.6 4.8 0.08 0.86 0.71 91 1010.9
20260505121005 1 315 0.0 8.0 0.08 0.86 0.71 91 1010.8
20260505120006 1 315 4.8 11.3 0.10 0.86 0.71 92 1010.9
20260505115504 1 315 4.8 9.7 0.08 0.84 0.69 92 1010.8
20260505114504 1 318 8.0 11.3 0.08 0.81 0.66 92 1010.7
20260505114005 1 318 4.8 11.3 0.08 0.81 0.66 92 1010.7
20260505113504 1 316 4.8 9.7 0.10 0.81 0.66 92 1010.5
20260505113005 1 320 3.2 9.7 0.08 0.79 0.64 92 1010.4
20260505112504 1 320 3.2 11.3 0.08 0.79 0.64 92 1010.3
20260505112007 1 320 4.8 12.9 0.10 0.79 0.64 92 1010.2
20260505111506 1 317 4.8 12.9 0.10 0.79 0.64 92 1010.0
20260505110507 1 352 4.8 11.3 0.10 0.76 0.61 92 1009.8
20260505102007 2 26 1.6 16.1 0.13 0.69 0.53 90 1009.5
20260505101506 2 52 8.0 16.1 0.13 0.69 0.53 90 1009.4
20260505100507 2 16 8.0 19.3 0.15 0.66 0.51 90 1009.2
20260505100004 2 23 9.7 19.3 0.13 0.64 0.48 90 1009.2
20260505095007 3 17 6.4 20.9 0.13 0.61 0.46 90 1009.1
20260505094506 3 17 9.7 24.1 0.13 0.61 0.46 90 1008.9
20260505094006 3 41 8.0 32.2 0.10 0.58 0.43 90 1008.9
20260505093506 3 56 14.5 32.2 0.13 0.58 0.43 89 1008.9
20260505093006 3 50 12.9 24.1 0.15 0.58 0.43 90 1008.8
20260505092507 3 53 9.7 20.9 0.15 0.58 0.43 90 1008.6
20260505091506 4 325 4.8 14.5 0.15 0.56 0.41 90 1008.5
20260505091006 4 338 3.2 14.5 0.18 0.53 0.38 90 1008.4
20260505090506 4 337 3.2 16.1 0.20 0.53 0.38 90 1008.3
20260505090006 5 325 3.2 16.1 0.20 0.51 0.36 89 1008.4
20260505085506 5 336 4.8 19.3 0.20 0.51 0.36 89 1008.5
20260505085006 5 16 4.8 19.3 0.18 0.48 0.33 89 1008.5
20260505084506 5 49 8.0 19.3 0.18 0.48 0.33 89 1008.5
20260505084006 5 355 1.6 11.3 0.18 0.48 0.33 89 1008.3
20260505083007 5 343 3.2 11.3 0.15 0.43 0.28 89 1008.3
20260505082506 5 53 1.6 11.3 0.15 0.43 0.28 89 1008.2
20260505082006 5 8 1.6 11.3 0.15 0.43 0.28 89 1008.2
20260505081005 5 297 3.2 11.3 0.10 0.36 0.20 88 1008.1
20260505080506 5 332 3.2 11.3 0.08 0.33 0.18 88 1008.1
20260505080007 5 336 3.2 14.5 0.05 0.30 0.15 88 1008.1
20260505075506 5 332 4.8 16.1 0.05 0.30 0.15 88 1008.1
20260505075007 5 317 8.0 16.1 0.05 0.30 0.15 87 1008.1
20260505074505 5 326 8.0 19.3 0.08 0.30 0.15 87 1008.1
20260505074006 5 327 6.4 19.3 0.08 0.30 0.15 87 1008.1
20260505073505 5 15 8.0 14.5 0.10 0.30 0.15 87 1008.0
20260505073006 6 320 4.8 19.3 0.10 0.28 0.13 86 1008.1
20260505072507 6 324 4.8 19.3 0.13 0.28 0.13 86 1008.0
20260505072005 6 331 9.7 22.5 0.13 0.28 0.13 86 1008.0
20260505071506 6 332 4.8 22.5 0.13 0.28 0.13 85 1007.8
20260505070506 6 336 1.6 19.3 0.10 0.25 0.10 85 1007.9
20260505070005 6 11 3.2 19.3 0.10 0.25 0.10 84 1007.8
20260505065506 6 338 6.4 19.3 0.10 0.25 0.10 84 1007.9
20260505064505 6 344 8.0 24.1 0.08 0.23 0.08 83 1007.8
20260505064007 6 320 9.7 24.1 0.08 0.23 0.08 82 1007.8
20260505063506 7 316 6.4 19.3 0.05 0.20 0.05 81 1007.7
20260505062506 7 330 8.0 19.3 0.00 0.15 0.00 78 1007.6
20260505062005 7 35 8.0 20.9 0.00 0.15 0.00 78 1007.5
20260505060506 8 339 8.0 19.3 0.00 0.15 0.00 83 1007.1
20260505055506 8 244 0.0 1.6 0.00 0.15 0.15 84 1007.0
20260505055005 8 244 0.0 1.6 0.00 0.15 0.15 84 1006.8
20260505054507 8 244 0.0 1.6 0.00 0.15 0.15 84 1006.6
20260505054006 8 244 0.0 0.0 0.00 0.15 0.15 84 1006.4
20260505053505 8 244 0.0 0.0 0.00 0.15 0.15 84 1006.2
20260505053006 8 244 0.0 0.0 0.00 0.15 0.15 83 1006.2
20260505052506 8 244 0.0 0.0 0.00 0.15 0.15 82 1006.1
20260505052006 8 244 0.0 0.0 0.00 0.15 0.15 82 1006.0
20260505051506 8 244 0.0 0.0 0.00 0.15 0.15 81 1005.9
20260505050506 8 244 0.0 0.0 0.00 0.15 0.15 80 1005.8
20260505041505 9 244 4.8 9.7 0.00 0.15 0.15 78 1005.6
20260505041005 9 244 3.2 11.3 0.00 0.15 0.15 78 1005.5
20260505040506 10 244 3.2 11.3 0.00 0.15 0.15 78 1005.5
20260505040005 10 244 4.8 11.3 0.00 0.15 0.15 78 1005.4
20260505035506 10 244 3.2 8.0 0.00 0.15 0.15 78 1005.4
20260505035005 10 244 3.2 8.0 0.00 0.15 0.15 79 1005.4
20260505034505 10 244 1.6 12.9 0.00 0.15 0.15 79 1005.4
20260505034006 10 244 4.8 12.9 0.00 0.15 0.15 79 1005.4
20260505033506 10 254 4.8 11.3 0.00 0.15 0.15 80 1005.4
20260505033005 10 281 1.6 4.8 0.00 0.15 0.15 79 1005.3
20260505032506 10 282 0.0 0.0 0.00 0.15 0.15 79 1005.4
20260505032006 10 282 0.0 4.8 0.00 0.15 0.15 79 1005.2
20260505030505 9 282 1.6 4.8 0.00 0.15 0.15 82 1005.2
20260505030005 9 282 1.6 4.8 0.00 0.15 0.15 83 1005.1
20260505025505 9 282 1.6 4.8 0.00 0.15 0.15 83 1004.9
20260505025005 9 282 1.6 4.8 0.00 0.15 0.15 84 1004.7
20260505024505 9 282 0.0 3.2 0.00 0.15 0.15 84 1004.5
20260505024005 9 282 0.0 3.2 0.00 0.15 0.15 84 1004.3
20260505023505 9 282 0.0 4.8 0.00 0.15 0.15 83 1004.3
20260505022505 9 282 1.6 8.0 0.03 0.15 0.15 83 1004.1
20260505022005 10 282 1.6 8.0 0.03 0.15 0.15 82 1004.0
20260505021506 10 282 0.0 9.7 0.03 0.15 0.15 81 1003.8
20260505021005 10 282 3.2 9.7 0.05 0.15 0.15 81 1003.8
20260505020505 10 278 3.2 16.1 0.05 0.15 0.15 80 1003.6
20260505020005 10 284 4.8 16.1 0.05 0.15 0.15 80 1003.7
20260505015505 10 294 8.0 16.1 0.05 0.15 0.15 81 1003.9
20260505015006 9 273 9.7 16.1 0.05 0.15 0.15 82 1003.9
20260505013505 9 200 4.8 14.5 0.08 0.15 0.15 81 1003.7
20260505013005 10 215 6.4 14.5 0.08 0.15 0.15 81 1003.8
20260505012505 9 217 8.0 16.1 0.05 0.13 0.13 81 1003.9
20260505012006 9 217 9.7 16.1 0.05 0.13 0.13 81 1003.8
20260505011505 10 232 4.8 20.9 0.05 0.13 0.13 81 1003.9
20260505011005 10 251 6.4 20.9 0.05 0.13 0.13 80 1004.0
20260505010505 10 272 12.9 20.9 0.03 0.10 0.10 79 1004.1
20260505005505 10 294 11.3 19.3 0.03 0.10 0.10 79 1004.0
20260505005005 10 289 11.3 19.3 0.03 0.10 0.10 78 1004.0
20260505004505 10 285 9.7 24.1 0.03 0.10 0.10 77 1003.9
20260505004005 10 295 11.3 25.7 0.00 0.08 0.08 76 1003.8
20260505003505 11 299 12.9 25.7 0.00 0.08 0.08 75 1003.9
20260505003005 11 308 12.9 25.7 0.00 0.08 0.08 73 1003.7
20260505002505 11 313 11.3 20.9 0.03 0.08 0.08 72 1003.7
20260505002006 11 316 6.4 19.3 0.05 0.08 0.08 72 1003.7
20260505001505 11 299 9.7 19.3 0.05 0.08 0.08 72 1003.5
20260505001005 11 307 8.0 19.3 0.08 0.08 0.08 73 1003.4
20260505000505 12 306 6.4 14.5 0.08 0.08 0.08 74 1003.4
20260505000006 11 287 8.0 12.9 0.08 0.08 0.08 75 1003.4
20260504235506 12 261 0.0 4.8 0.08 0.08 0.08 77 1003.2
20260504235005 12 261 0.0 1.6 0.08 0.08 0.08 75 1003.1
20260504234505 12 261 0.0 1.6 0.08 0.08 0.08 71 1003.2
20260504234006 12 261 0.0 4.8 0.08 0.08 0.08 71 1003.2
20260504233505 12 261 0.0 4.8 0.08 0.08 0.08 71 1003.2
20260504233005 12 261 0.0 16.1 0.08 0.08 0.08 66 1003.2
20260504232505 12 261 1.6 19.3 0.05 0.05 0.05 64 1003.4
20260504232006 13 275 12.9 32.2 0.03 0.03 0.03 59 1003.3
20260504231505 13 260 16.1 32.2 0.03 0.03 0.03 59 1003.3
20260504231005 15 258 17.7 32.2 0.00 0.00 0.00 50 1003.0
20260504230505 16 258 11.3 20.9 0.00 0.00 0.00 45 1002.6
20260504230005 15 284 9.7 20.9 0.00 0.00 0.00 44 1002.4
20260504225505 15 293 11.3 20.9 0.00 0.00 0.00 45 1002.1
20260504225005 15 285 8.0 20.9 0.00 0.00 0.00 45 1002.1
20260504224505 16 289 11.3 22.5 0.00 0.00 0.00 44 1001.9
20260504224005 16 302 9.7 29.0 0.00 0.00 0.00 44 1001.7
20260504223505 16 304 14.5 29.0 0.00 0.00 0.00 43 1001.7
20260504222505 17 304 11.3 25.7 0.00 0.00 0.00 41 1001.7
20260504222005 17 324 8.0 25.7 0.00 0.00 0.00 41 1001.6
20260504221005 17 349 8.0 16.1 0.00 0.00 0.00 42 1001.5
20260504220505 17 42 8.0 16.1 0.00 0.00 0.00 42 1001.6
20260504220005 17 55 9.7 16.1 0.00 0.00 0.00 41 1001.7
20260504215505 17 338 3.2 14.5 0.00 0.00 0.00 41 1001.8
20260504215005 17 7 9.7 14.5 0.00 0.00 0.00 40 1001.9
20260504214005 17 26 3.2 8.0 0.00 0.00 0.00 41 1002.1
20260504213005 16 35 1.6 11.3 0.00 0.00 0.00 42 1002.0
20260504212505 16 61 3.2 11.3 0.00 0.00 0.00 41 1001.8
20260504212006 16 5 1.6 8.0 0.00 0.00 0.00 43 1002.0
20260504211505 16 21 1.6 11.3 0.00 0.00 0.00 43 1002.1
20260504210005 16 327 8.0 32.2 0.00 0.00 0.00 43 1002.2
20260504205504 16 345 9.7 32.2 0.00 0.00 0.00 42 1002.2
20260504205005 17 31 9.7 33.8 0.00 0.00 0.00 42 1002.1
20260504204005 17 341 11.3 40.2 0.00 0.00 0.00 40 1001.8
20260504203506 17 3 11.3 40.2 0.00 0.00 0.00 38 1001.6
20260504203005 17 348 8.0 32.2 0.00 0.00 0.00 37 1001.4
20260504202505 17 357 12.9 32.2 0.00 0.00 0.00 37 1001.2
20260504202005 17 48 16.1 32.2 0.00 0.00 0.00 37 1001.1
20260504201505 16 26 16.1 32.2 0.00 0.00 0.00 39 1001.2